STARLINK-36714

Last updated on Wed Mar 25 2026 00:02:05 GMT+0000 (Coordinated Universal Time)

1 67924U 26036W 26083.50002314 -.02155659 00000+0 -69638-1 0 9996 2 67924 42.9990 161.8114 0001325 291.0987 115.2107 15.34793217 6029
UTC large
Height (km)
Speed (km/s)
/
Latitude / Longitude
Inclination (degrees)
Orbital Period (minutes)
Azimuth
Elevation
Range (km)
Doppler Factor

Next 0 passes for location: London (51.5072 / 0.1276)

Sorry there are no passes over London.